Flag for U.S.A. Weather past 2 weeks in Allentown, Pennsylvania, U.S.A.

Now
72 °F

Thundershowers. Passing clouds.


Feels Like: 71 °F
Forecast: 66 / 84 °F
Wind: No wind

Location: Lehigh Valley International Airport

Current Time: Aug 4, 2015 at 2:15:42 AM

Latest Report: Aug 4, 2015 at 1:58 AM


Visibility: 10 mi

Pressure: 29.82 "Hg

Humidity: 83%

Dew point: 66 °F

Location of AllentownLocation

Historic Weather in Allentown — Graph

°F

Allentown temperature yesterday

Maximum temperature yesterday: 88 °F (at 1:51 PM)
Minimum temperature yesterday: 62 °F (at 5:51 AM)
Average temperature yesterday: 75 °F

Past Weeks' High & Low Weather Summary

 TemperatureHumidityPressure
High92 °F (Jul 29, 1:51 PM)96% (Jul 28, 4:51 AM)30.03 "Hg (Jul 28, 4:51 AM)
Low57 °F (Jul 24, 5:51 AM)30% (Jul 24, 5:51 PM)29.60 "Hg (Jul 21, 5:51 PM)
Average76 °F66%29.88 "Hg
* Reported Jul 20 12:51 AM — Aug 4 12:51 AM, Allentown, Weather by CustomWeather, © 2015

Note: Actual official high and low records may vary slightly from our data, if they occured in-between our weather recording intervals... More about our weather records

Advertising

Allentown weather history for previous 24 hours

 ConditionsComfort  
Time TempWeatherWind HumidityBarometerVisibility
12:51 AM
Tue, Aug 4
71 °FClear.No wind87%29.81 "Hg10 mi
11:51 PM
Mon, Aug 3
70 °FClear.5 mph87%29.81 "Hg10 mi
10:51 PM72 °FPassing clouds.3 mph81%29.81 "Hg10 mi
9:51 PM76 °FPassing clouds.6 mph72%29.82 "Hg10 mi
8:51 PM72 °FSunny.No wind84%29.79 "Hg10 mi
7:51 PM74 °FLight rain. Broken clouds.6 mph76%29.79 "Hg10 mi
6:51 PM85 °FBroken clouds.13 mph48%29.78 "Hg10 mi
5:51 PM85 °FScattered clouds.13 mph48%29.78 "Hg10 mi
4:51 PM86 °FSunny.13 mph46%29.78 "Hg10 mi
3:51 PM86 °FSunny.14 mph45%29.78 "Hg10 mi
2:51 PM86 °FScattered clouds.13 mph48%29.79 "Hg10 mi
1:51 PM88 °FSunny.12 mph43%29.79 "Hg10 mi
12:51 PM87 °FPassing clouds.15 mph46%29.80 "Hg10 mi
11:51 AM85 °FSunny.14 mph51%29.82 "Hg10 mi
10:51 AM82 °FSunny.12 mph55%29.84 "Hg10 mi
9:51 AM78 °FSunny.13 mph58%29.84 "Hg10 mi
8:51 AM75 °FSunny.5 mph66%29.85 "Hg10 mi
7:51 AM71 °FSunny.No wind73%29.85 "Hg10 mi
6:51 AM64 °FClear.3 mph87%29.85 "Hg8 mi
5:51 AM62 °FClear.No wind90%29.83 "Hg9 mi
4:51 AM63 °FClear.No wind90%29.84 "Hg10 mi
3:51 AM63 °FClear.No wind90%29.84 "Hg10 mi
2:51 AM64 °FClear.5 mph87%29.84 "Hg10 mi
Weather by CustomWeather, © 2015

See weather overviewHow to use our weather pages